User: anonymous   Login
Location: Copper Breaks State Park
(34.1132°N, 99.7492°W)
Time: 12:35:17
(UTC-05:00)
Language:

SL-16 R/B - Orbit

View from above orbital plane
View from above orbital plane
View from above satellite
View from above satellite

Ground track
Ground track

The orbit data is extracted from the following two-line orbital elements,

1 27006U 01056F   15188.12143839  .00000004  00000-0  51511-4 0  9992
2 27006 099.2099 344.1015 0014715 009.3112 118.6312 13.70959531679060
Epoch (UTC): 07 July 2015 02:54:52
Eccentricity: 0.0014715
inclination: 99.2099°
perigee height: 985 km
apogee height: 1007 km
right ascension of ascending node: 344.1015°
argument of perigee: 9.3112°
revolutions per day: 13.70959531
mean anomaly at epoch: 118.6312°
orbit number at epoch: 67906

The dashed part of the orbit path shows where the satellite is in the earth's shadow,  

DLR